Regional Weather Roundup
Issued by NWS

Home | Current Version | Previous Version | Text Only | Print | Product List | Glossary On
Versions: 1 2 3 4 5 6 7 8 9 10 11 12 13 14 15 16 17 18 19 20 21 22 23 24 25 26 27 28 29 30 31 32 33 34 35 36 37 38 39 40 41 42 43 44 45 46 47 48 49 50
000
ASUS43 KLSX 290857
RWRMO

WEATHER SUMMARY FOR MISSOURI
NATIONAL WEATHER SERVICE SPRINGFIELD MO
400 AM CDT THU JUN 29 2017

NOTE: "FAIR" INDICATES FEW OR NO CLOUDS BELOW 12,000 FEET WITH NO
       SIGNIFICANT WEATHER AND/OR OBSTRUCTIONS TO VISIBILITY.
       CURRENT SKY AND/OR WEATHER CONDITIONS ARE NOT AVAILABLE FOR
       CHILLICOTHE AND FARMINGTON.

MOZ001>031-035>038-043-044-053-054-291000-
...NORTHERN AND WESTERN MISSOURI...

CITY           SKY/WX    TMP DP  RH WIND       PRES   REMARKS
KANSAS CTY INT CLOUDY    72  67  84 E15       29.85R
LEE`S SUMMIT   CLOUDY    75  68  78 E10       29.87R
ST JOSEPH      CLOUDY    72  67  84 SE22G36   29.79S
CHILLICOTHE      N/A     67  65  93 S7        29.87F

$$
MOZ066>068-077>081-088>096-101>105-291000-
...SOUTHWEST MISSOURI...

CITY           SKY/WX    TMP DP  RH WIND       PRES   REMARKS
SPRINGFIELD    PTCLDY    72  67  84 S13       29.90S
JOPLIN         MOCLDY    75  68  78 S12       29.85S

$$
MOZ032>034-039>042-045>050-055>058-069>072-291000-
...CENTRAL MISSOURI...

CITY           SKY/WX    TMP DP  RH WIND       PRES   REMARKS
COLUMBIA       NOT AVBL
JEFFERSON CITY CLOUDY    76  60  57 NE16G28   29.94R
ROLLA          MOCLDY    73  65  75 S13       29.95R
SEDALIA        CLOUDY    74  65  73 E12       29.92R

$$
MOZ051-052-059>065-291000-
...EAST CENTRAL MISSOURI...

CITY           SKY/WX    TMP DP  RH WIND       PRES   REMARKS
ST LOUIS INTL  NOT AVBL

$$
MOZ072>076-082>087-097>100-106>115-291000-
...SOUTH CENTRAL AND SOUTHEAST MISSOURI...

CITY           SKY/WX    TMP DP  RH WIND       PRES   REMARKS
CAPE GIRARDEAU CLEAR     71  64  78 S7        29.97R
POPLAR BLUFF   CLEAR     67  67 100 CALM      29.96R
WEST PLAINS    PTCLDY    72  64  76 S6        29.97R

$$



USA.gov is the U.S. government's official web portal to all federal, state and local government web resources and services.